Total_Precipitation_Accumulation
1.67 1.83 1.71 1.53 1.48 1.44 1.68 2.03 2.28 2.07 1.83 1.65 1.51 1.47 1.50 1.55 1.78 1.65 1.70 1.65 1.47 1.32 1.19 1.11 1.08 1.05 1.05 1.12 1.21 1.25 1.29 1.39 1.60 1.81 2.04 2.33 2.65 2.95
1.84 1.84 1.74 1.58 1.66 1.50 1.56 1.85 2.10 2.25 2.03 1.52 1.54 1.51 1.60 1.46 1.70 1.61 1.74 1.70 1.45 1.32 1.19 1.11 1.06 1.03 1.01 1.03 1.09 1.18 1.22 1.21 1.27 1.39 1.51 1.62 1.75 1.96
2.01 1.93 1.87 1.86 1.87 1.72 1.73 1.83 1.92 2.14 2.10 1.67 1.59 1.72 1.82 1.72 1.77 1.73 1.67 1.69 1.50 1.43 1.22 1.12 1.06 1.02 1.03 1.02 1.03 1.03 1.07 1.08 1.11 1.17 1.24 1.30 1.32 1.36
2.35 2.42 2.18 2.12 2.10 1.93 1.90 1.86 1.90 2.08 2.11 1.96 1.86 1.91 1.93 1.85 1.82 1.66 1.43 1.35 1.38 1.48 1.37 1.22 1.13 1.06 1.01 0.99 1.00 0.98 0.98 1.00 1.05 1.06 1.09 1.13 1.17 1.19
2.22 2.40 2.39 2.50 2.28 2.22 2.12 2.01 1.96 1.92 2.07 1.98 1.85 2.04 2.04 2.01 1.91 1.58 1.46 1.47 1.31 1.49 1.46 1.24 1.12 1.07 1.01 0.96 0.92 0.92 0.91 0.93 0.96 0.99 1.00 0.99 0.99 1.01
2.01 2.09 2.21 2.48 2.48 2.47 2.28 2.24 2.23 2.21 2.27 2.18 2.08 2.18 2.35 2.38 2.21 1.83 1.68 1.60 1.46 1.30 1.38 1.25 1.18 1.12 1.04 0.96 0.91 0.88 0.88 0.88 0.90 0.91 0.94 0.95 0.94 0.91
2.03 1.98 1.97 2.20 2.28 2.28 2.04 2.12 2.28 2.33 2.36 2.32 2.29 2.35 2.41 2.53 2.23 1.98 1.80 1.75 1.67 1.48 1.40 1.22 1.17 1.10 1.11 1.12 1.06 0.98 0.91 0.90 0.91 0.92 0.92 0.92 0.94 0.98
2.24 2.17 2.05 2.00 1.98 2.00 2.04 2.08 2.16 2.16 2.20 2.24 2.21 2.25 2.32 2.42 2.52 2.35 2.10 1.92 1.74 1.56 1.57 1.39 1.30 1.23 1.11 1.02 1.13 1.10 1.01 0.94 0.91 0.92 0.94 0.96 0.96 0.94
2.18 2.17 1.93 1.80 1.95 1.88 2.03 2.05 1.91 1.85 1.83 1.93 1.96 2.01 2.39 2.66 2.90 2.61 2.36 2.15 1.90 1.75 1.69 1.45 1.33 1.23 1.10 1.06 1.17 1.03 0.96 0.91 0.88 0.88 0.89 0.91 0.93 0.93
1.84 1.94 1.90 1.82 1.83 1.91 1.85 1.65 1.51 1.50 1.52 1.45 1.50 1.72 2.10 2.59 2.86 2.85 2.79 2.55 2.26 1.89 1.67 1.43 1.21 1.14 1.08 1.07 1.19 1.11 1.00 0.92 0.88 0.85 0.81 0.81 0.85 0.89
1.66 1.65 1.66 1.56 1.66 1.71 1.63 1.46 1.34 1.30 1.33 1.34 1.32 1.47 1.73 2.06 2.44 2.62 2.53 2.33 1.98 1.60 1.44 1.32 1.18 1.19 1.14 1.06 1.08 1.21 1.13 1.04 0.98 0.93 0.90 0.88 0.89 0.94
1.76 1.74 1.78 1.59 1.50 1.40 1.34 1.36 1.21 1.12 1.21 1.19 1.16 1.20 1.32 1.58 1.98 2.08 2.08 2.10 1.88 1.61 1.34 1.32 1.24 1.37 1.28 1.08 1.01 1.07 1.11 1.16 1.16 1.10 1.05 1.05 1.09 0.98
1.54 1.48 1.53 1.54 1.33 1.17 1.15 1.15 1.07 1.07 1.13 1.09 1.03 1.02 1.13 1.28 1.46 1.74 1.88 1.85 1.75 1.48 1.30 1.42 1.30 1.33 1.33 1.12 1.01 0.99 1.00 1.02 1.08 1.15 1.21 1.20 1.20 1.11
1.56 1.57 1.61 1.63 1.35 1.18 1.03 0.93 0.95 0.91 0.92 0.98 0.95 0.93 0.98 1.08 1.29 1.57 1.83 1.88 1.76 1.62 1.61 1.64 1.52 1.43 1.40 1.25 1.09 0.99 1.01 1.06 1.11 1.13 1.18 1.37 1.35 1.33
1.55 1.82 1.82 1.74 1.52 1.24 1.13 1.10 1.00 0.88 0.91 0.95 0.93 0.89 0.92 1.05 1.32 1.62 1.85 2.03 1.96 1.78 1.70 1.64 1.60 1.59 1.61 1.40 1.21 1.14 1.16 1.14 1.09 1.10 1.14 1.18 1.22 1.30
1.48 1.71 1.84 1.84 1.71 1.52 1.43 1.33 1.11 1.02 1.07 1.06 1.08 1.13 1.21 1.34 1.49 1.63 1.81 1.96 2.00 1.82 1.71 1.68 1.68 1.78 1.73 1.58 1.48 1.34 1.26 1.22 1.18 1.22 1.26 1.25 1.24 1.21
1.53 1.75 1.90 2.00 2.01 1.94 1.82 1.70 1.56 1.41 1.28 1.23 1.27 1.28 1.33 1.42 1.48 1.63 1.83 1.92 1.85 1.64 1.60 1.67 1.77 1.87 1.88 1.81 1.58 1.30 1.22 1.15 1.11 1.22 1.31 1.27 1.19 1.13
1.45 1.61 1.85 2.04 2.11 2.19 2.21 2.09 1.87 1.67 1.54 1.51 1.47 1.45 1.47 1.47 1.51 1.67 1.87 1.97 1.85 1.69 1.61 1.62 1.81 1.96 1.95 1.79 1.53 1.31 1.18 1.11 1.08 1.16 1.23 1.22 1.09 1.00
1.33 1.47 1.59 1.70 1.87 2.09 2.18 2.16 1.96 1.82 1.84 1.80 1.71 1.68 1.70 1.71 1.70 1.79 1.97 2.09 2.04 1.89 1.80 1.80 1.87 1.91 1.77 1.42 1.16 1.10 1.13 1.10 1.15 1.17 1.15 1.13 1.05 0.99
1.12 1.28 1.43 1.56 1.73 1.97 2.10 2.14 2.10 2.01 2.02 2.05 2.00 1.94 1.93 1.89 1.82 1.79 1.90 2.00 2.02 1.99 1.94 1.85 1.75 1.73 1.70 1.53 1.38 1.22 1.17 1.23 1.27 1.28 1.25 1.23 1.20 1.23
1.07 1.11 1.18 1.34 1.51 1.74 1.98 2.13 2.14 2.04 1.96 2.02 2.00 1.92 1.93 1.94 1.85 1.77 1.82 1.99 2.06 2.03 1.88 1.68 1.59 1.79 1.97 2.09 1.85 1.45 1.29 1.31 1.39 1.41 1.44 1.52 1.42 1.35
1.16 1.18 1.25 1.37 1.52 1.75 1.94 2.04 2.06 2.03 1.98 1.99 1.97 1.90 1.88 1.87 1.74 1.67 1.70 1.78 1.84 1.88 1.87 1.86 2.02 2.17 2.18 2.12 1.81 1.52 1.43 1.47 1.56 1.65 1.60 1.52 1.41 1.29
1.25 1.24 1.29 1.38 1.56 1.76 1.90 1.99 2.01 2.02 2.02 2.00 1.97 1.89 1.87 1.87 1.82 1.77 1.74 1.77 1.79 1.82 1.99 2.08 2.09 2.18 2.14 2.07 1.99 1.86 1.73 1.68 1.69 1.67 1.52 1.41 1.30 1.21